timestamp,surface_pressure_avg,surface_temp_avg,battery_voltage,lat,long
2017-12-24 00:00:00+00:00,250.9147,4.7,12.73,47.84626,-54.09684
2017-12-24 00:10:00+00:00,250.5514,4.71,12.65,47.84626,-54.09684
2017-12-24 00:20:00+00:00,249.5181,4.75,12.73,47.84626,-54.09684
2017-12-24 00:30:00+00:00,254.6331,4.7,12.73,47.84626,-54.09684
2017-12-24 00:40:00+00:00,264.0131,4.5,12.73,47.84626,-54.09684
2017-12-24 00:50:00+00:00,269.3481,4.63,12.73,47.84626,-54.09684
2017-12-24 01:00:00+00:00,269.3598,4.7,12.65,47.84626,-54.09684
2017-12-24 01:10:00+00:00,277.2447,4.6,12.65,47.84626,-54.09684
2017-12-24 01:20:00+00:00,286.7497,4.5,12.73,47.84626,-54.09684
2017-12-24 01:30:00+00:00,288.0997,4.4,12.73,47.84626,-54.09684
2017-12-24 01:40:00+00:00,287.3947,4.49,12.73,47.84626,-54.09684
2017-12-24 01:50:00+00:00,295.8747,4.3,12.73,47.84626,-54.09684
2017-12-24 02:00:00+00:00,299.7747,4.0,12.65,47.84626,-54.09684
2017-12-24 02:10:00+00:00,297.3297,3.8,12.65,47.84626,-54.09684
2017-12-24 02:20:00+00:00,296.878,4.23,12.73,47.84626,-54.09684
2017-12-24 02:30:00+00:00,301.4998,4.67,12.73,47.84626,-54.09684
2017-12-24 02:40:00+00:00,303.693,4.7,12.73,47.84626,-54.09684
2017-12-24 02:50:00+00:00,305.033,4.7,12.73,47.84626,-54.09684
2017-12-24 03:00:00+00:00,309.9847,4.7,12.65,47.84626,-54.09684
2017-12-24 03:10:00+00:00,310.3164,4.7,12.65,47.84626,-54.09684
2017-12-24 03:20:00+00:00,304.3146,4.7,12.65,47.84626,-54.09684
2017-12-24 03:30:00+00:00,302.843,4.7,12.65,47.84626,-54.09684
2017-12-24 03:40:00+00:00,304.9047,4.7,12.73,47.84626,-54.09684
2017-12-24 03:50:00+00:00,307.5431,4.67,12.73,47.84626,-54.09684
2017-12-24 04:00:00+00:00,307.818,4.6,12.65,47.84626,-54.09684
2017-12-24 04:10:00+00:00,310.113,4.6,12.65,47.84626,-54.09684
2017-12-24 04:20:00+00:00,308.8013,4.6,12.65,47.84626,-54.09684
2017-12-24 04:30:00+00:00,305.0147,4.4,12.65,47.84626,-54.09684
2017-12-24 04:40:00+00:00,305.2947,4.46,12.65,47.84626,-54.09684
2017-12-24 04:50:00+00:00,306.3997,4.53,12.65,47.84626,-54.09684
2017-12-24 05:00:00+00:00,302.5096,4.6,12.65,47.84626,-54.09684
2017-12-24 05:10:00+00:00,301.3697,4.6,12.57,47.84626,-54.09684
2017-12-24 05:20:00+00:00,299.9214,4.5,12.65,47.84626,-54.09684
2017-12-24 05:30:00+00:00,291.9631,4.6,12.65,47.84626,-54.09684
2017-12-24 05:40:00+00:00,289.4814,4.59,12.65,47.84626,-54.09684
2017-12-24 05:50:00+00:00,291.3964,4.35,12.65,47.84626,-54.09684
2017-12-24 06:00:00+00:00,288.2064,4.2,12.65,47.84626,-54.09684
2017-12-24 06:10:00+00:00,279.3898,4.4,12.57,47.84626,-54.09684
2017-12-24 06:20:00+00:00,270.2314,3.87,12.65,47.84626,-54.09684
2017-12-24 06:30:00+00:00,259.8597,3.72,12.65,47.84626,-54.09684
2017-12-24 06:40:00+00:00,249.2348,3.8,12.65,47.84626,-54.09684
2017-12-24 06:50:00+00:00,244.6747,2.16,12.65,47.84626,-54.09684
2017-12-24 07:00:00+00:00,243.7398,3.44,12.57,47.84626,-54.09684
2017-12-24 07:10:00+00:00,243.0948,3.55,12.57,47.84626,-54.09684
2017-12-24 07:20:00+00:00,239.6731,3.51,12.65,47.84626,-54.09684
2017-12-24 07:30:00+00:00,234.3081,2.58,12.65,47.84626,-54.09684
2017-12-24 07:40:00+00:00,229.3914,4.0,12.65,47.84626,-54.09684
2017-12-24 07:50:00+00:00,228.3731,4.0,12.65,47.84626,-54.09684
2017-12-24 08:00:00+00:00,223.9581,4.0,12.57,47.84626,-54.09684
2017-12-24 08:10:00+00:00,217.7065,3.9,12.57,47.84626,-54.09684
2017-12-24 08:20:00+00:00,220.9414,3.92,12.65,47.84626,-54.09684
2017-12-24 08:30:00+00:00,219.2698,3.94,12.65,47.84626,-54.09684
2017-12-24 08:40:00+00:00,216.7332,3.76,12.65,47.84626,-54.09684
2017-12-24 08:50:00+00:00,220.0247,3.69,12.65,47.84626,-54.09684
2017-12-24 09:00:00+00:00,224.6781,3.84,12.57,47.84626,-54.09684
2017-12-24 09:10:00+00:00,226.1214,3.84,12.57,47.84626,-54.09684
2017-12-24 09:20:00+00:00,232.3214,4.34,12.65,47.84626,-54.09684
2017-12-24 09:30:00+00:00,235.2347,4.12,12.65,47.84626,-54.09684
2017-12-24 09:40:00+00:00,236.6597,4.0,12.65,47.84626,-54.09684
2017-12-24 09:50:00+00:00,242.3514,4.41,12.65,47.84626,-54.09684
2017-12-24 10:00:00+00:00,251.4281,4.5,12.57,47.84626,-54.09684
2017-12-24 10:10:00+00:00,250.0198,4.36,12.57,47.84626,-54.09684
2017-12-24 10:20:00+00:00,250.148,4.1,12.57,47.84626,-54.09684
2017-12-24 10:30:00+00:00,256.0664,4.17,12.57,47.84626,-54.09684
2017-12-24 10:40:00+00:00,260.6381,4.44,12.65,47.84626,-54.09684
2017-12-24 10:50:00+00:00,264.1947,4.48,12.65,47.84626,-54.09684
2017-12-24 11:00:00+00:00,268.0914,4.4,12.57,47.84626,-54.09684
2017-12-24 11:10:00+00:00,275.7498,4.4,12.57,47.84626,-54.09684
2017-12-24 11:20:00+00:00,276.8464,4.3,12.57,47.84626,-54.09684
2017-12-24 11:30:00+00:00,277.2214,4.19,12.57,47.84626,-54.09684
2017-12-24 11:40:00+00:00,281.3881,4.26,12.65,47.84626,-54.09684
2017-12-24 11:50:00+00:00,286.363,4.3,12.65,47.84626,-54.09684
2017-12-24 12:00:00+00:00,287.9714,4.29,12.57,47.84626,-54.09684
2017-12-24 12:10:00+00:00,292.5547,4.2,12.57,47.84626,-54.09684
2017-12-24 12:20:00+00:00,300.1447,4.19,12.57,47.84626,-54.09684
2017-12-24 12:30:00+00:00,299.4696,4.1,12.57,47.84626,-54.09684
2017-12-24 12:40:00+00:00,294.9547,4.0,12.65,47.84626,-54.09684
2017-12-24 12:50:00+00:00,297.783,4.0,12.65,47.84626,-54.09684
2017-12-24 13:00:00+00:00,298.7913,4.08,12.57,47.84626,-54.09684
2017-12-24 13:10:00+00:00,295.6313,4.09,12.57,47.84626,-54.09684
2017-12-24 13:20:00+00:00,301.3663,4.1,12.57,47.84626,-54.09684
2017-12-24 13:30:00+00:00,311.243,4.1,12.57,47.84626,-54.09684
2017-12-24 13:40:00+00:00,305.488,3.9,12.57,47.84626,-54.09684
2017-12-24 13:50:00+00:00,304.603,4.16,12.65,47.84626,-54.09684
2017-12-24 14:00:00+00:00,319.5598,4.3,12.57,47.84626,-54.09684
2017-12-24 14:10:00+00:00,327.6797,4.04,12.57,47.84626,-54.09684
2017-12-24 14:20:00+00:00,327.7529,3.88,12.57,47.84626,-54.09684
2017-12-24 14:30:00+00:00,332.3397,4.14,12.57,47.84626,-54.09684
2017-12-24 14:40:00+00:00,340.4796,4.2,12.65,47.84626,-54.09684
2017-12-24 14:50:00+00:00,339.5546,4.17,12.65,47.84626,-54.09684
2017-12-24 15:00:00+00:00,340.2712,4.1,12.57,47.84626,-54.09684
2017-12-24 15:10:00+00:00,344.7379,4.1,12.57,47.84626,-54.09684
2017-12-24 15:20:00+00:00,343.4713,4.0,12.57,47.84626,-54.09684
2017-12-24 15:30:00+00:00,333.858,3.8,12.57,47.84626,-54.09684
2017-12-24 15:40:00+00:00,326.2946,3.82,12.65,47.84626,-54.09684
2017-12-24 15:50:00+00:00,324.228,3.8,12.65,47.84626,-54.09684
2017-12-24 16:00:00+00:00,322.4263,3.8,12.57,47.84626,-54.09684
2017-12-24 16:10:00+00:00,319.3463,3.8,12.57,47.84626,-54.09684
2017-12-24 16:20:00+00:00,318.7762,3.7,12.57,47.84626,-54.09684
2017-12-24 16:30:00+00:00,319.6514,3.7,12.57,47.84626,-54.09684
2017-12-24 16:40:00+00:00,315.1763,3.7,12.65,47.84626,-54.09684
2017-12-24 16:50:00+00:00,310.5514,3.7,12.65,47.84626,-54.09684
2017-12-24 17:00:00+00:00,307.9247,3.69,12.57,47.84626,-54.09684
2017-12-24 17:10:00+00:00,302.3814,3.7,12.57,47.84626,-54.09684
2017-12-24 17:20:00+00:00,298.0046,3.66,12.65,47.84626,-54.09684
2017-12-24 17:30:00+00:00,291.938,3.6,12.65,47.84626,-54.09684
2017-12-24 17:40:00+00:00,284.4564,3.6,12.65,47.84626,-54.09684
2017-12-24 17:50:00+00:00,279.3864,3.64,12.65,47.84626,-54.09684
2017-12-24 18:00:00+00:00,280.5064,3.7,12.65,47.84626,-54.09684
2017-12-24 18:10:00+00:00,276.6414,3.6,12.65,47.84626,-54.09684
2017-12-24 18:20:00+00:00,264.3331,3.6,12.73,47.84626,-54.09684
2017-12-24 18:30:00+00:00,258.9964,3.55,12.81,47.84626,-54.09684
2017-12-24 18:40:00+00:00,255.0414,3.6,12.73,47.84626,-54.09684
2017-12-24 18:50:00+00:00,246.1548,3.6,12.81,47.84626,-54.09684
2017-12-24 19:00:00+00:00,231.2764,3.5,12.65,47.84626,-54.09684
2017-12-24 19:10:00+00:00,220.1798,3.45,12.65,47.84626,-54.09684
2017-12-24 19:20:00+00:00,212.9881,3.4,12.65,47.84626,-54.09684
2017-12-24 19:30:00+00:00,206.4398,3.3,12.65,47.84626,-54.09684
2017-12-24 19:40:00+00:00,202.7298,3.36,12.65,47.84626,-54.09684
2017-12-24 19:50:00+00:00,199.2048,3.4,12.65,47.84626,-54.09684
2017-12-24 20:00:00+00:00,190.3148,3.4,12.57,47.84626,-54.09684
2017-12-24 20:10:00+00:00,182.7465,3.3,12.57,47.84626,-54.09684
2017-12-24 20:20:00+00:00,185.8548,3.24,12.65,47.84626,-54.09684
2017-12-24 20:30:00+00:00,186.4815,3.3,12.65,47.84626,-54.09684
2017-12-24 20:40:00+00:00,181.5498,3.3,12.65,47.84626,-54.09684
2017-12-24 20:50:00+00:00,184.7265,3.4,12.65,47.84626,-54.09684
2017-12-24 21:00:00+00:00,188.3248,3.48,12.57,47.84626,-54.09684
2017-12-24 21:10:00+00:00,190.4814,3.52,12.57,47.84626,-54.09684
2017-12-24 21:20:00+00:00,196.5398,3.6,12.57,47.84626,-54.09684
2017-12-24 21:30:00+00:00,200.8114,3.8,12.57,47.84626,-54.09684
2017-12-24 21:40:00+00:00,207.4114,3.9,12.57,47.84626,-54.09684
2017-12-24 21:50:00+00:00,212.1381,4.0,12.57,47.84626,-54.09684
2017-12-24 22:00:00+00:00,209.3914,3.8,12.57,47.84626,-54.09684
2017-12-24 22:10:00+00:00,207.9348,4.02,12.57,47.84626,-54.09684
2017-12-24 22:20:00+00:00,212.5581,4.11,12.57,47.84626,-54.09684
2017-12-24 22:30:00+00:00,212.9697,4.03,12.57,47.84626,-54.09684
2017-12-24 22:40:00+00:00,214.2097,3.8,12.57,47.84626,-54.09684
2017-12-24 22:50:00+00:00,219.6098,3.63,12.57,47.84626,-54.09684
2017-12-24 23:00:00+00:00,218.7514,3.61,12.57,47.84626,-54.09684
2017-12-24 23:10:00+00:00,216.5414,3.69,12.57,47.84626,-54.09684
2017-12-24 23:20:00+00:00,214.5614,3.65,12.57,47.84626,-54.09684
2017-12-24 23:30:00+00:00,215.6548,3.66,12.57,47.84626,-54.09684
2017-12-24 23:40:00+00:00,221.1448,3.69,12.57,47.84626,-54.09684
2017-12-24 23:50:00+00:00,226.1865,3.7,12.57,47.84626,-54.09684
